Regional Weather Roundup
Issued by NWS Charleston, WV

Home | Current Version | Previous Version | Graphics & Text | Print | Product List | Glossary On
Versions: 1 2 3 4 5 6 7 8 9 10 11 12 13 14 15 16 17 18 19 20 21 22 23 24 25 26 27 28 29 30 31 32 33 34 35 36 37 38 39 40 41 42 43 44 45 46 47 48 49 50
195
ASUS41 KRLX 181210
RWRRLX
West Virginia Regional Weather Roundup
National Weather Service Charleston WV
700 AM EST THU JAN 18 2018

Note: "fair" indicates few or no clouds below 12,000 feet with no
significant weather and/or obstructions to visibility.

WVZ003-181300-
Northern Panhandle of West Virginia

CITY           SKY/WX    TMP DP  RH WIND       PRES   REMARKS
WHEELING         N/A      8   3  80 S13       30.23F WCI  -8
$$

WVZ009-181300-
Northwest West Virginia

CITY           SKY/WX    TMP DP  RH WIND       PRES   REMARKS
PARKERSBURG      N/A      7   3  84 S9        30.38F WCI  -7
$$

WVZ006-181300-
Western West Virginia

CITY           SKY/WX    TMP DP  RH WIND       PRES   REMARKS
HUNTINGTON       N/A      8   3  80 S9        30.42S WCI  -5
$$

WVZ015-181300-
West Central West Virginia

CITY           SKY/WX    TMP DP  RH WIND       PRES   REMARKS
CHARLESTON       N/A      9   5  84 SW7       30.41S WCI  -2
$$

WVZ022-031-181300-
North Central West Virginia

CITY           SKY/WX    TMP DP  RH WIND       PRES   REMARKS
CLARKSBURG     CLOUDY    12   6  77 SW13      30.34S WCI  -3
MORGANTOWN     MOCLDY    11   5  77 S9G18     30.30F WCI  -2
$$

WVZ025-035-042-045-181300-
Southern West Virginia

CITY           SKY/WX    TMP DP  RH WIND       PRES   REMARKS
BECKLEY        LGT SNOW   6   2  83 W9        30.28R FOG     WCI  -8
LOGAN          CLOUDY    10   9  92 CALM      30.37S
BLUEFIELD      LGT SNOW   4   2  91 W9        30.25R FOG     WCI -10
LEWISBURG        N/A      9   4  78 W7        30.25R WCI  -2
$$

WVZ047-181300-
Northern Mountains of West Virginia

CITY           SKY/WX    TMP DP  RH WIND       PRES   REMARKS
ELKINS         CLOUDY     9   3  77 SE6       30.29R WCI  -1
$$

WVZ052-181300-
Eastern Panhandle of West Virginia

CITY           SKY/WX    TMP DP  RH WIND       PRES   REMARKS
MARTINSBURG      N/A     20   4  50 VRB7      30.17R
PETERSBURG       N/A      3   0  85 N3        30.21R
$$




USA.gov is the U.S. government's official web portal to all federal, state and local government web resources and services.